Tacoma, WA

9:18 PM PDT on May 28, 2017 (GMT -0700)
McChord Air Force Base

Weather History for KTCM - June, 2013

Change the Weather History Date:

Sunday, June 23, 2013

  Actual Average Record
Temperature  
Mean Temperature 64 °F -  
Max Temperature 67 °F 69 °F 91 °F (1992)
Min Temperature 59 °F 48 °F 40 °F (2008)
Degree Days  
Heating Degree Days 2    
Growing Degree Days 14 (Base 50)    
Moisture  
Dew Point 58 °F    
Average Humidity 85    
Maximum Humidity 100    
Minimum Humidity 66    
Precipitation  
Precipitation 0.65 in - - ()
Sea Level Pressure  
Sea Level Pressure 29.72 in    
Wind  
Wind Speed 4 mph (NW)    
Max Wind Speed 10 mph    
Max Gust Speed -    
Visibility 9 miles    
Events Rain    
Averages and records for this station are not official NWS values.
T = Trace of Precipitation, MM = Missing Value Source: NWS Daily Summary

Daily Weather History Graph

Daily Weather History Graph

Search for Another Location

Airport or City:

Trip Planner

Search our weather history database for the weather conditions in past years. The results will help you decide how hot, cold, wet, or windy it might be!

Date:

Astronomy

Jun. 23, 2013 Rise Set
Actual Time 5:14 AM PDT 9:09 PM PDT
Civil Twilight 4:34 AM PDT 9:49 PM PDT
Nautical Twilight 3:39 AM PDT 10:44 PM PDT
Astronomical Twilight 2:15 AM PDT 12:08 AM PDT
Moon 9:20 PM PDT (6/23) 5:43 AM PDT (6/23)
Length of Visible Light 17h 14m
Length of Day
15h 54m
Full, 100% of the Moon is Illuminated
Jun 23
Full
Jun 29
Last Quarter
Jul 8
New
Jul 15
First Quarter
Jul 22
Full

Hourly Weather History & Observations

Time (PDT) Temp. Dew Point Humidity Pressure Visibility Wind Dir Wind Speed Gust Speed Precip Events Conditions
12:58 AM 64.0 °F 52.5 °F 66% 29.86 in 10.0 mi NE 2.3 mph - N/A   Scattered Clouds
1:58 AM 63.3 °F 52.5 °F 68% 29.85 in 10.0 mi North 2.3 mph - N/A   Partly Cloudy
2:58 AM 63.1 °F 52.5 °F 68% 29.84 in 10.0 mi NNW 3.5 mph - N/A   Partly Cloudy
3:10 AM 62.6 °F 53.6 °F 72% 29.82 in 10.0 mi North 5.8 mph - N/A Rain Light Rain
3:21 AM 62.6 °F 51.8 °F 68% 29.82 in 10.0 mi North 4.6 mph - N/A   Scattered Clouds
3:27 AM 62.6 °F 51.8 °F 68% 29.83 in 10.0 mi NNW 3.5 mph - N/A Rain Light Rain
3:47 AM 62.6 °F 53.6 °F 72% 29.82 in 10.0 mi North 3.5 mph - N/A   Overcast
3:50 AM 62.6 °F 53.6 °F 72% 29.82 in 10.0 mi North 5.8 mph - N/A Rain Light Rain
3:58 AM 61.9 °F 53.6 °F 74% 29.83 in 10.0 mi North 2.3 mph - 0.00 in Rain Light Rain
4:04 AM 62.6 °F 53.6 °F 72% 29.82 in 10.0 mi Variable 1.2 mph - N/A   Overcast
4:58 AM 59.2 °F 55.4 °F 87% 29.83 in 10.0 mi Calm Calm - 0.00 in   Overcast
5:58 AM 59.0 °F 55.9 °F 90% 29.83 in 10.0 mi South 2.3 mph - N/A   Overcast
6:10 AM 59.0 °F 55.4 °F 88% 29.82 in 10.0 mi SSE 1.2 mph - N/A Rain Light Rain
6:58 AM 59.9 °F 56.8 °F 90% 29.82 in 10.0 mi South 2.3 mph - 0.00 in Rain Light Rain
7:36 AM 60.8 °F 57.2 °F 88% 29.81 in 10.0 mi North 2.3 mph - N/A   Overcast
7:40 AM 60.8 °F 57.2 °F 88% 29.81 in 10.0 mi North 3.5 mph - N/A Rain Light Rain
7:58 AM 61.5 °F 55.6 °F 81% 29.82 in 10.0 mi North 2.3 mph - 0.00 in Rain Light Rain
8:58 AM 61.7 °F 56.5 °F 83% 29.81 in 10.0 mi North 3.5 mph - 0.00 in Rain Light Rain
9:58 AM 62.4 °F 57.6 °F 84% 29.80 in 10.0 mi NNE 3.5 mph - 0.01 in Rain Light Rain
10:43 AM 62.6 °F 57.2 °F 82% 29.78 in 10.0 mi North 5.8 mph - N/A   Mostly Cloudy
10:58 AM 63.9 °F 57.9 °F 81% 29.78 in 10.0 mi NE 8.1 mph - 0.00 in   Overcast
11:58 AM 65.7 °F 56.8 °F 73% 29.77 in 10.0 mi NE 5.8 mph - N/A   Mostly Cloudy
12:01 PM 66.2 °F 57.2 °F 73% 29.76 in 10.0 mi Variable 3.5 mph - N/A Rain Light Rain
12:23 PM 66.2 °F 57.2 °F 73% 29.76 in 10.0 mi Variable 2.3 mph - N/A   Overcast
12:27 PM 66.2 °F 57.2 °F 73% 29.76 in 10.0 mi NNE 5.8 mph - N/A Rain Light Rain
12:42 PM 66.2 °F 57.2 °F 73% 29.76 in 10.0 mi NNE 4.6 mph - N/A   Mostly Cloudy
12:56 PM 66.2 °F 57.2 °F 73% 29.75 in 10.0 mi NE 2.3 mph - N/A Rain Light Rain
12:58 PM 66.2 °F 56.5 °F 71% 29.76 in 10.0 mi NE 2.3 mph - 0.00 in Rain Light Rain
1:50 PM 66.2 °F 57.2 °F 73% 29.74 in 10.0 mi NNE 4.6 mph - N/A   Mostly Cloudy
1:58 PM 67.1 °F 56.3 °F 68% 29.75 in 10.0 mi Variable 3.5 mph - 0.00 in   Mostly Cloudy
2:05 PM 68.0 °F 57.2 °F 68% 29.74 in 10.0 mi North 4.6 mph - N/A Rain Light Rain
2:15 PM 68.0 °F 57.2 °F 68% 29.73 in 10.0 mi NE 3.5 mph - N/A   Overcast
2:21 PM 68.0 °F 57.2 °F 68% 29.73 in 10.0 mi Variable 4.6 mph - N/A   Light Drizzle
2:30 PM 68.0 °F 57.2 °F 68% 29.73 in 10.0 mi NNE 4.6 mph - N/A   Overcast
2:39 PM 66.2 °F 57.2 °F 73% 29.73 in 10.0 mi NNE 4.6 mph - N/A Rain Light Rain
2:58 PM 66.2 °F 58.6 °F 77% 29.73 in 10.0 mi NNE 4.6 mph - 0.00 in Rain Light Rain
3:58 PM 65.8 °F 59.9 °F 81% 29.72 in 10.0 mi North 5.8 mph - 0.00 in Rain Light Rain
4:58 PM 66.4 °F 60.3 °F 81% 29.70 in 10.0 mi Calm Calm - 0.01 in Rain Light Rain
5:58 PM 65.7 °F 61.7 °F 87% 29.67 in 10.0 mi North 5.8 mph - 0.02 in Rain Light Rain
6:50 PM 66.2 °F 62.6 °F 88% 29.64 in 10.0 mi NNE 5.8 mph - N/A   Clear
6:58 PM 66.0 °F 61.9 °F 86% 29.65 in 10.0 mi NNE 4.6 mph - 0.00 in   Partly Cloudy
7:58 PM 65.3 °F 61.2 °F 86% 29.64 in 10.0 mi NNE 4.6 mph - N/A   Mostly Cloudy
8:12 PM 64.4 °F 60.8 °F 88% 29.63 in 10.0 mi Calm Calm - N/A Rain Light Rain
8:58 PM 62.8 °F 61.9 °F 97% 29.64 in 3.0 mi West 6.9 mph - 0.04 in Rain Rain
8:59 PM 62.6 °F 62.6 °F 100% 29.63 in 2.0 mi West 6.9 mph - N/A Rain Heavy Rain
9:04 PM 62.6 °F 62.6 °F 100% 29.63 in 1.2 mi West 6.9 mph - N/A Rain Heavy Rain
9:09 PM 62.6 °F 62.6 °F 100% 29.63 in 1.8 mi WNW 8.1 mph - N/A Rain Heavy Rain
9:14 PM 62.6 °F 62.6 °F 100% 29.62 in 2.5 mi WNW 10.4 mph - N/A Rain Heavy Rain
9:24 PM 62.6 °F 60.8 °F 94% 29.64 in 4.0 mi SW 8.1 mph - N/A Rain Light Rain
9:34 PM 60.8 °F 60.8 °F 100% 29.65 in 2.5 mi SSW 8.1 mph - N/A Rain Heavy Rain
9:39 PM 60.8 °F 60.8 °F 100% 29.65 in 1.2 mi SSW 9.2 mph - N/A Rain Heavy Rain
9:49 PM 60.8 °F 60.8 °F 100% 29.65 in 3.0 mi WSW 8.1 mph - N/A Rain Light Rain
9:55 PM 60.8 °F 60.8 °F 100% 29.65 in 9.0 mi WSW 8.1 mph - N/A Rain Light Rain
9:58 PM 60.8 °F 60.8 °F 100% 29.66 in 8.0 mi WSW 8.1 mph - 0.55 in Rain Light Rain
10:03 PM 60.8 °F 59.0 °F 94% 29.65 in 6.0 mi WSW 5.8 mph - N/A Rain Light Rain
10:08 PM 60.8 °F 59.0 °F 94% 29.65 in 7.0 mi WSW 6.9 mph - N/A Rain Light Rain
10:18 PM 60.8 °F 59.0 °F 94% 29.65 in 10.0 mi WSW 5.8 mph - N/A   Overcast
10:26 PM 60.8 °F 59.0 °F 94% 29.65 in 10.0 mi WSW 8.1 mph - N/A   Light Drizzle
10:37 PM 60.8 °F 59.0 °F 94% 29.65 in 10.0 mi West 8.1 mph - N/A   Overcast
10:42 PM 60.8 °F 59.0 °F 94% 29.65 in 10.0 mi West 6.9 mph - N/A   Overcast
10:58 PM 59.9 °F 59.7 °F 99% 29.65 in 10.0 mi WSW 5.8 mph - 0.02 in   Overcast
11:03 PM 60.8 °F 59.0 °F 94% 29.64 in 10.0 mi West 4.6 mph - N/A   Overcast
11:04 PM 60.8 °F 59.0 °F 94% 29.64 in 10.0 mi West 4.6 mph - N/A   Overcast
11:14 PM 60.8 °F 59.0 °F 94% 29.64 in 10.0 mi West 4.6 mph - N/A   Overcast
11:15 PM 60.8 °F 59.0 °F 94% 29.64 in 10.0 mi West 4.6 mph - N/A   Overcast
11:25 PM 60.8 °F 59.0 °F 94% 29.64 in 10.0 mi WSW 2.3 mph - N/A   Overcast
11:30 PM 60.8 °F 59.0 °F 94% 29.64 in 10.0 mi SSW 3.5 mph - N/A   Overcast
11:35 PM 60.8 °F 59.0 °F 94% 29.64 in 10.0 mi SSW 4.6 mph - N/A   Overcast
11:45 PM 60.8 °F 59.0 °F 94% 29.64 in 10.0 mi South 4.6 mph - N/A   Overcast
11:51 PM 60.8 °F 59.0 °F 94% 29.64 in 10.0 mi South 3.5 mph - N/A   Overcast
11:56 PM 60.8 °F 59.0 °F 94% 29.64 in 10.0 mi SSW 3.5 mph - N/A   Overcast
11:57 PM 60.8 °F 59.0 °F 94% 29.64 in 10.0 mi SSW 3.5 mph - N/A Rain Light Rain
11:58 PM 60.8 °F 59.0 °F 94% 29.65 in 10.0 mi SSW 3.5 mph - N/A Rain Light Rain